AirNav   Air Wisconsin pilot careers
 
 1111 users online  

0CL0 Yosemite Hidden Lake Ranch Airport
Raymond, California, USA

GOING TO RAYMOND?


FAA INFORMATION EFFECTIVE 07 DECEMBER 2017

Location

FAA Identifier: 0CL0
Lat/Long: 37-07-04.8090N / 119-54-47.5690W
37-07.080150N / 119-54.792817W
37.1180025 / -119.9132136
(estimated)
Elevation: 500 ft. / 152 m (estimated)
Variation: 15E (1985)
From city: 6 miles S of RAYMOND, CA
Time zone: UTC -8 (UTC -7 during Daylight Saving Time)
Zip code: 93638

Airport Operations

Airport use: Private use. Permission required prior to landing
Activation date: 11/1972
Control tower: no
ARTCC: OAKLAND CENTER
FSS: RANCHO MURIETA FLIGHT SERVICE STATION
Attendance: UNATNDD
Wind indicator: yes
Segmented circle: no

Airport Communications

WX ASOS at MAE (12 nm SW): 134.725 (559-674-1781)

Nearby radio navigation aids

VOR radial/distance  VOR name  Freq  Var
CZQr326/14.8CLOVIS VORTAC112.9015E
FRAr256/15.2FRIANT VORTAC115.6017E
HYPr090/24.1EL NIDO VOR/DME114.2015E

Airport Services

Airframe service: NONE
Powerplant service: NONE

Runway Information

Runway 17/35

Dimensions: 3720 x 75 ft. / 1134 x 23 m
Surface: dirt
RUNWAY 17  RUNWAY 35
Traffic pattern: leftleft

Airport Ownership and Management from official FAA records

Ownership: Privately-owned
Owner: ALFRED PETSCHAUER
25363 RUN WAY
RAYMOND, CA 93653
Phone 559-395-3680
CO-OWNER.
Manager: ALFRED PETSCHAUER
25363 RUN WAY
RAYMOND, CA 93653
Phone 559-395-3680

Instrument Procedures

There are no published instrument procedures at 0CL0.

Some nearby airports with instrument procedures:

KMAE - Madera Municipal Airport (12 nm SW)
KFAT - Fresno Yosemite International Airport (23 nm SE)
KFCH - Fresno Chandler Executive Airport (24 nm S)
KMPI - Mariposa-Yosemite Airport (24 nm N)
KMCE - Merced Regional Airport/Macready Field (30 nm W)
 
Loc | Ops | Rwys | IFR | FBO | Links
Com | Nav | Svcs | Stats | Notes


 
Area around 0CL0 (Yosemite Hidden Lake Ranch Airport)
 
Road maps at: MapQuest Bing Google
 
Aerial photo
No photo
 
Sectional chart

 
Airport distance calculator
Flying to Yosemite Hidden Lake Ranch Airport? Find the distance to fly.

From to 0CL0

Sunrise and sunset
Times for 12-Dec-2017
 Local
(UTC-8)
 Zulu
(UTC)
Morning civil twilight06:3614:36
Sunrise07:0515:05
Sunset16:4200:42
Evening civil twilight17:1101:11

Current date and time
Zulu (UTC)  12-Dec-2017 23:07:54
Local (UTC-8)  12-Dec-2017 15:07:54
 
METAR
KMAE 
13nm SW 
122253Z AUTO 33003KT 5SM HZ CLR 17/03 A3022 RMK AO2 SLP233 T01720028
KFAT 
22nm SE 
122253Z 33003KT 3SM HZ CLR 17/03 A3021 RMK AO2 SLP230 T01670028
KFCH 
25nm S 
122255Z AUTO 00000KT 5SM HZ CLR 16/03 A3022 RMK A01
TAF
KFAT 
22nm SE 
121730Z 1218/1318 VRB04KT 4SM HZ FEW200 FM121900 VRB05KT P6SM SKC FM130300 VRB03KT 4SM BR SKC TEMPO 1307/1311 1SM BR SKC FM131100 VRB02KT 1SM BR SKC TEMPO 1313/1317 1/4SM FG SKC
NOTAMs
Click for the latest NOTAMs
NOTAMs are issued by the DoD/FAA and will open in a separate window not controlled by AirNav.

 

 
 

Would you like to see your business listed on this page?

 If your business provides an interesting product or service to pilots, flight crews, aircraft, or users of the Yosemite Hidden Lake Ranch Airport, you should consider listing it here.  To start the listing process, click on the button below
 
Add a business
 

Other Pages about Yosemite Hidden Lake Ranch Airport

Update a link
 
Copyright © AirNav, LLC. All rights reserved. Privacy Policy  Contact